Wind_Speed
37 32 42 39 44 41 47 42 44 44 46 52 60 64 63 65 67 68 75 62 59 59 57 54 52 53 50 55 54 58 61 62 63 66 66 70 74 78 81 83 88 90 94 98 95 100 98 94 88
37 39 42 45 48 46 52 51 46 44 50 56 63 67 69 71 68 70 75 62 57 60 55 56 56 52 47 47 54 57 62 65 64 67 69 70 74 79 82 81 84 90 90 92 96 100 104 101 97
43 43 50 50 51 57 57 58 51 49 56 62 67 69 72 73 71 71 75 62 59 54 56 57 56 50 49 52 58 62 65 65 65 66 68 72 73 75 74 71 73 82 87 86 89 96 103 106 103
48 48 49 48 52 57 61 62 60 59 61 67 70 76 78 77 69 78 77 63 55 53 57 56 55 53 52 57 62 64 64 63 62 66 70 72 72 72 72 69 68 72 79 83 85 88 96 105 106
55 56 56 54 52 58 62 65 62 65 67 73 74 79 72 73 72 78 73 59 53 55 59 53 56 56 58 63 66 67 68 69 71 69 71 71 70 68 69 68 67 68 71 75 81 85 90 97 103
57 58 58 53 52 58 64 68 72 72 75 72 74 74 78 73 78 78 64 55 57 57 56 55 59 60 60 63 67 67 72 71 70 69 69 66 64 63 65 67 67 68 69 71 74 82 87 89 95
58 57 61 55 57 64 70 72 70 72 71 71 78 76 78 79 82 79 64 60 61 58 57 58 61 60 64 67 68 69 72 68 69 66 65 62 61 60 62 65 66 69 69 70 72 77 85 87 87
61 60 62 62 64 68 74 71 70 73 69 76 80 78 76 79 88 79 66 57 57 60 59 56 59 63 66 66 69 77 71 71 63 61 60 58 59 57 59 61 64 66 70 70 72 74 81 84 86
62 64 66 65 68 70 72 74 72 65 71 83 79 82 83 88 86 68 58 54 57 60 57 59 56 59 64 69 76 75 73 62 58 54 52 46 53 53 53 53 55 61 66 69 72 75 78 82 85
64 64 66 71 71 73 74 67 63 71 79 82 83 79 86 89 74 60 56 56 60 58 58 60 60 66 70 74 79 72 63 58 51 48 45 40 42 44 47 46 48 51 60 66 70 74 77 80 83
60 66 66 68 70 71 67 67 74 79 83 86 79 85 86 79 66 60 58 57 59 57 60 60 65 70 74 80 71 66 57 50 46 45 44 38 36 34 34 38 40 44 48 60 66 70 75 78 81
63 68 69 70 71 70 70 74 77 80 86 79 80 84 82 68 58 61 59 58 60 61 65 67 71 74 79 74 66 56 50 44 44 40 38 33 30 31 28 28 32 36 42 49 59 65 70 75 77
66 70 67 60 61 69 75 74 78 82 82 83 85 78 50 47 39 42 58 61 62 63 68 73 76 78 69 61 55 48 40 39 35 35 33 28 25 27 27 24 26 30 36 43 50 55 63 70 76
68 70 68 70 69 68 76 74 73 81 78 83 82 58 47 41 45 59 65 60 64 68 73 77 73 66 60 57 45 38 35 31 32 30 26 22 20 20 22 20 22 27 32 37 43 47 55 62 71
67 66 70 68 73 72 73 74 79 82 81 83 83 60 60 59 68 69 62 63 68 72 74 70 67 58 51 41 37 30 27 28 28 26 21 17 15 15 16 16 20 23 28 32 36 42 50 56 64
73 67 71 77 73 68 73 79 81 82 86 81 61 58 59 62 64 63 65 67 70 69 65 63 55 47 39 34 27 24 24 26 30 27 21 12 13 11 9 12 15 20 24 28 32 35 43 52 57
67 67 65 72 75 77 74 77 74 85 66 50 49 50 55 57 55 57 59 62 60 60 60 52 44 34 34 27 19 23 20 21 27 29 22 13 9 8 7 8 13 18 20 24 29 32 34 44 52
67 67 68 68 73 69 75 76 78 58 50 48 48 45 45 46 49 49 50 52 56 56 50 40 29 30 29 20 17 23 18 20 24 29 24 21 12 8 4 5 10 15 19 21 26 32 36 39 49
63 64 64 68 70 72 73 64 61 56 52 50 48 45 44 45 48 50 50 53 52 47 38 28 25 28 21 15 16 17 19 16 19 25 25 23 17 9 3 1 5 11 17 22 27 31 35 35 42
64 64 63 64 66 64 57 53 50 46 48 48 44 39 41 45 45 46 48 45 43 35 27 22 24 23 16 11 17 17 22 20 16 21 23 23 18 11 5 2 5 9 15 21 27 33 36 37 41
62 64 64 63 62 51 47 40 34 37 41 42 42 40 41 41 42 40 38 38 35 26 20 21 22 15 12 8 13 15 21 22 18 14 18 21 22 17 6 4 6 9 13 19 26 31 34 37 40
65 64 62 60 47 36 31 31 30 31 33 32 34 36 33 36 34 36 36 32 27 19 19 20 15 12 9 6 11 11 14 17 17 15 15 13 19 21 14 4 8 10 14 19 24 30 33 37 39
66 55 48 37 30 29 28 26 29 32 32 28 27 26 30 32 30 34 31 27 19 16 19 19 13 10 4 3 7 11 6 11 11 15 18 13 13 17 16 8 8 11 13 17 25 31 34 36 41
46 36 31 28 27 26 25 23 30 32 32 24 24 26 26 29 30 32 25 22 16 17 17 15 9 9 2 5 5 10 11 14 20 21 14 9 13 19 19 16 11 13 14 17 23 28 29 31 41
34 29 25 25 23 25 25 28 29 31 31 27 27 25 26 25 28 26 21 17 15 17 16 11 7 5 7 5 5 12 17 17 23 25 25 16 11 9 15 13 13 15 16 18 22 23 26 36 39
29 27 24 23 22 26 24 32 28 32 32 32 32 29 23 21 24 20 18 15 15 16 15 8 5 5 7 7 10 12 20 23 24 22 24 25 12 13 12 14 20 21 20 21 25 25 30 42 42
27 21 23 24 24 28 29 30 31 34 33 35 32 26 22 20 23 16 14 14 15 15 13 6 5 5 7 12 12 13 19 18 21 25 29 26 15 16 11 18 25 27 28 30 30 33 40 45 52
22 25 23 27 26 29 30 32 33 35 34 34 32 24 20 20 18 12 12 12 15 13 12 6 5 5 7 13 15 16 17 20 20 19 30 29 17 17 14 22 30 35 36 32 39 42 45 53 55
26 24 28 25 29 30 31 35 30 34 35 36 33 25 21 20 17 11 9 11 15 12 11 6 6 5 5 18 17 21 20 18 17 19 24 29 27 19 16 19 39 40 34 34 39 38 44 60 57
26 24 30 29 32 31 35 32 30 30 35 35 34 27 20 15 11 12 11 12 14 10 9 6 4 5 3 18 17 22 17 12 12 23 20 26 29 30 24 21 39 37 34 38 45 44 41 61 52
Wind_Direction
285 288 298 296 298 287 289 294 296 304 309 312 318 318 317 316 309 316 321 307 297 300 298 290 287 283 271 269 275 277 277 272 267 263 260 262 263 263 257 254 253 249 245 239 234 225 222 222 221
283 293 293 297 295 289 286 291 297 300 305 311 314 315 316 315 311 314 319 305 297 298 295 290 289 285 278 274 277 281 286 278 273 269 268 267 267 266 258 254 252 251 248 243 239 233 226 221 221
287 294 296 300 300 294 286 290 291 297 302 306 311 311 313 314 311 315 317 307 299 295 289 291 291 283 279 277 279 279 289 281 274 274 271 272 271 268 265 256 250 246 246 246 241 237 233 225 222
285 290 297 294 299 301 289 288 288 292 299 306 311 311 313 313 313 318 315 305 297 289 295 291 287 285 281 283 285 283 289 290 283 281 278 273 271 268 266 262 254 246 242 241 240 237 232 230 225
283 288 291 292 297 299 300 299 293 293 301 305 308 309 313 312 314 316 314 302 294 295 296 290 292 289 288 289 293 292 293 293 290 282 277 273 268 266 263 260 255 247 242 237 235 234 232 227 226
282 282 284 289 294 297 303 299 295 297 299 301 307 308 310 312 314 317 311 296 297 294 297 295 293 292 293 294 298 299 300 298 292 285 280 275 270 264 259 256 252 248 242 238 233 230 230 228 225
281 284 283 284 289 297 301 296 294 294 298 301 307 306 308 312 314 317 305 295 297 295 299 297 293 293 295 299 302 305 307 300 294 291 285 279 274 267 260 254 250 246 243 238 235 230 228 226 225
274 281 281 284 290 296 297 296 293 291 297 302 303 303 305 307 313 315 302 296 296 299 301 296 294 294 297 302 309 311 308 304 297 293 289 282 276 269 261 254 249 244 240 237 234 230 227 224 223
272 282 284 284 292 297 296 292 286 295 300 299 299 301 306 312 313 309 296 294 295 299 303 303 302 304 308 314 312 311 309 303 300 295 291 284 275 271 265 257 248 243 239 235 231 229 226 223 221
275 279 280 285 291 292 287 283 291 298 297 299 299 305 309 311 312 303 296 293 295 302 305 305 307 309 310 311 313 312 308 306 304 304 302 290 277 270 265 258 251 242 236 233 230 225 225 222 219
275 278 280 285 289 284 277 285 293 295 297 297 301 310 310 308 306 299 298 294 300 304 305 311 311 311 310 310 311 311 309 309 311 308 305 297 284 272 259 253 249 245 235 230 228 224 221 221 219
277 276 280 280 279 276 281 287 292 294 295 298 312 313 310 310 301 300 303 303 305 306 308 311 310 306 307 310 312 311 309 314 315 314 308 298 285 276 264 254 242 238 232 228 225 223 220 218 218
278 276 274 270 271 277 285 287 290 292 295 308 314 308 297 308 302 293 297 302 304 307 307 309 307 305 309 309 313 311 314 319 326 319 312 300 289 279 272 257 242 233 226 224 221 219 219 216 215
271 262 270 271 279 283 290 290 293 295 308 310 308 293 302 292 286 287 299 302 304 303 306 305 308 309 310 312 314 311 316 327 336 330 319 304 295 286 273 262 239 225 218 217 220 215 215 214 212
258 269 274 277 283 284 286 293 298 305 306 303 303 296 290 281 290 293 301 300 299 302 304 308 309 310 311 312 314 311 322 331 339 340 327 310 303 296 276 259 237 221 216 212 212 210 210 210 209
271 270 281 280 279 288 295 300 300 301 302 300 295 297 290 291 291 293 293 292 297 303 307 308 309 310 308 321 316 317 325 336 355 354 349 331 317 307 280 249 235 221 214 210 206 205 205 206 204
268 275 280 289 293 297 298 303 304 303 298 295 297 301 304 299 300 294 295 300 302 304 305 309 308 307 315 324 327 329 321 340 355 360 358 350 346 344 301 243 228 217 208 204 201 196 197 200 201
277 283 283 290 293 297 300 302 302 294 295 294 296 303 303 301 302 304 302 304 304 304 305 307 308 316 318 336 341 339 329 337 356 359 8 11 7 8 9 252 220 213 204 196 194 189 191 195 196
286 288 296 298 301 300 302 296 292 291 294 294 293 300 307 307 306 304 304 301 301 306 306 306 319 318 323 355 355 0 353 358 355 6 16 11 18 14 42 98 199 203 199 191 190 186 184 184 191
290 293 296 299 298 299 295 290 293 296 294 292 294 299 303 306 305 301 301 301 305 306 305 314 324 315 343 8 355 358 10 11 9 354 14 16 18 19 34 110 158 189 184 184 184 182 180 178 184
290 291 295 296 293 288 289 295 301 303 300 295 290 296 301 304 308 308 303 307 309 302 310 326 321 316 0 26 0 358 1 8 359 5 18 26 27 28 29 105 135 162 176 177 180 178 180 180 181
286 289 290 287 282 284 286 295 304 309 312 298 296 297 302 306 310 306 306 311 310 308 323 329 316 329 354 19 2 20 359 0 14 11 17 39 24 22 24 91 121 144 160 171 172 175 177 180 175
283 283 276 267 271 282 286 299 311 315 318 310 304 300 300 303 312 310 312 315 306 318 328 331 310 343 1 9 20 50 16 6 35 18 3 12 28 16 28 57 130 132 145 163 170 171 172 176 176
269 261 256 264 271 283 299 307 320 325 322 309 307 306 297 299 307 307 314 313 309 329 332 332 316 345 230 208 43 49 37 47 49 38 20 358 33 31 25 40 121 134 139 156 162 165 166 167 170
248 246 253 266 277 286 309 318 333 327 325 307 303 307 304 308 306 304 316 302 318 332 334 333 310 347 180 155 75 79 88 77 54 40 34 35 34 45 31 45 96 133 140 144 150 154 152 160 159
240 244 257 272 282 292 306 315 328 328 328 321 309 313 314 315 305 307 314 306 328 335 336 335 334 30 134 150 109 117 99 81 65 55 41 23 59 85 56 69 104 116 129 131 130 138 148 153 153
237 246 258 271 281 294 307 309 326 331 331 323 314 318 322 315 300 317 306 310 335 340 343 342 354 53 147 131 120 123 113 101 84 67 55 40 71 96 87 94 102 112 115 119 127 138 146 146 152
232 247 257 268 282 291 301 307 325 326 330 328 324 318 334 304 294 306 299 318 340 338 359 353 8 35 160 141 129 136 127 113 90 79 65 53 70 102 108 112 119 115 118 124 137 146 148 153 149
235 240 255 268 278 287 298 303 319 324 330 330 329 320 332 296 298 295 296 317 339 341 8 1 10 15 157 156 137 143 144 128 108 88 73 69 66 108 103 124 133 130 135 141 142 127 140 153 150
235 251 259 267 271 285 290 299 315 326 326 331 329 318 331 279 308 302 297 316 333 344 9 8 7 1 60 169 148 147 145 141 102 112 97 77 75 77 97 115 142 137 140 147 147 143 144 159 146
Height
10930 10928 10926 10924 10923 10919 10917 10915 10910 10909 10906 10901 10899 10895 10892 10887 10880 10876 10869 10863 10856 10852 10849 10844 10842 10837 10834 10832 10829 10827 10823 10819 10816 10812 10809 10806 10803 10799 10798 10798 10800 10805 10814 10822 10831 10842 10849 10858 10870
10924 10922 10919 10918 10916 10914 10906 10907 10904 10901 10898 10895 10890 10886 10882 10876 10870 10864 10859 10851 10848 10843 10837 10835 10829 10825 10822 10819 10815 10811 10807 10802 10798 10795 10792 10789 10784 10776 10777 10780 10782 10784 10792 10800 10813 10821 10831 10841 10853
10918 10916 10913 10912 10910 10907 10900 10898 10895 10892 10889 10886 10882 10876 10871 10867 10859 10854 10846 10841 10836 10832 10828 10821 10819 10814 10810 10807 10802 10798 10792 10786 10782 10777 10771 10766 10761 10756 10754 10760 10762 10764 10770 10778 10787 10797 10810 10823 10836
10910 10908 10906 10905 10903 10899 10895 10891 10887 10883 10881 10877 10872 10868 10861 10854 10850 10844 10837 10829 10823 10820 10817 10813 10807 10803 10798 10794 10790 10783 10777 10772 10766 10758 10748 10743 10739 10736 10733 10736 10739 10743 10749 10757 10765 10773 10783 10799 10818
10903 10901 10898 10898 10896 10891 10887 10884 10879 10874 10871 10869 10864 10856 10854 10843 10840 10834 10825 10819 10814 10810 10805 10803 10796 10792 10786 10780 10774 10767 10760 10753 10744 10736 10728 10721 10718 10715 10713 10714 10718 10722 10727 10735 10742 10751 10762 10776 10795
10896 10893 10889 10887 10886 10884 10882 10876 10871 10867 10862 10858 10853 10847 10843 10838 10829 10822 10815 10810 10804 10800 10794 10789 10786 10779 10774 10766 10759 10751 10741 10730 10720 10711 10704 10698 10695 10695 10694 10695 10698 10702 10708 10716 10724 10733 10744 10759 10774
10888 10885 10883 10879 10877 10874 10871 10867 10862 10858 10853 10847 10846 10837 10832 10824 10818 10813 10804 10798 10794 10788 10782 10776 10771 10768 10760 10751 10743 10735 10723 10710 10699 10689 10681 10676 10674 10675 10675 10676 10681 10683 10689 10697 10706 10717 10727 10741 10757
10878 10878 10876 10873 10871 10865 10860 10859 10853 10849 10844 10838 10833 10828 10819 10817 10806 10800 10793 10786 10783 10777 10771 10764 10759 10753 10746 10738 10730 10715 10706 10694 10682 10672 10661 10655 10653 10654 10654 10656 10662 10665 10670 10679 10688 10699 10710 10726 10741
10869 10870 10867 10864 10862 10858 10850 10847 10841 10842 10834 10830 10823 10816 10808 10800 10797 10790 10783 10779 10774 10768 10761 10754 10747 10742 10732 10722 10714 10702 10690 10678 10668 10657 10647 10641 10635 10635 10636 10638 10643 10648 10653 10661 10673 10683 10695 10710 10725
10861 10861 10858 10854 10852 10848 10843 10837 10832 10829 10823 10818 10811 10805 10797 10790 10785 10778 10773 10769 10764 10756 10750 10745 10736 10728 10719 10710 10700 10689 10675 10665 10654 10643 10634 10627 10622 10621 10622 10625 10627 10633 10638 10646 10655 10668 10680 10694 10710
10855 10848 10847 10843 10843 10839 10833 10826 10823 10817 10811 10807 10801 10793 10784 10777 10773 10767 10763 10757 10752 10746 10740 10734 10726 10716 10706 10698 10687 10677 10666 10654 10643 10633 10623 10616 10612 10611 10612 10614 10617 10621 10626 10634 10642 10653 10666 10681 10697
10844 10837 10836 10833 10831 10829 10822 10817 10811 10805 10801 10794 10788 10778 10771 10767 10762 10756 10751 10746 10740 10734 10728 10721 10714 10705 10696 10687 10676 10667 10656 10645 10634 10623 10615 10609 10604 10603 10604 10606 10609 10612 10617 10623 10629 10641 10655 10669 10686
10830 10825 10825 10823 10818 10817 10811 10804 10801 10793 10792 10784 10778 10768 10763 10757 10752 10747 10743 10735 10730 10724 10717 10711 10703 10692 10685 10675 10667 10657 10647 10637 10627 10617 10610 10603 10599 10597 10596 10598 10601 10605 10609 10614 10620 10631 10643 10657 10674
10817 10812 10813 10813 10809 10805 10800 10791 10792 10782 10781 10771 10766 10761 10755 10750 10746 10739 10732 10726 10721 10713 10707 10700 10691 10681 10674 10666 10659 10649 10641 10631 10622 10613 10605 10599 10595 10593 10590 10591 10594 10597 10601 10607 10615 10623 10634 10648 10662
10801 10805 10804 10799 10799 10793 10790 10779 10779 10770 10772 10761 10756 10751 10747 10742 10735 10729 10723 10717 10711 10705 10697 10690 10680 10672 10665 10660 10651 10642 10635 10627 10619 10609 10602 10597 10592 10590 10587 10586 10588 10592 10597 10602 10609 10618 10627 10640 10655
10792 10794 10792 10789 10789 10782 10776 10769 10764 10763 10757 10752 10746 10740 10736 10732 10725 10719 10715 10709 10701 10695 10689 10681 10672 10665 10658 10654 10645 10637 10630 10623 10616 10607 10601 10594 10591 10588 10585 10584 10585 10588 10592 10598 10605 10613 10622 10634 10647
10782 10784 10780 10774 10772 10771 10767 10760 10753 10751 10744 10743 10738 10731 10727 10722 10716 10709 10703 10699 10692 10685 10679 10673 10665 10658 10653 10648 10640 10634 10627 10622 10616 10608 10601 10594 10590 10586 10584 10583 10584 10586 10589 10595 10603 10611 10620 10629 10641
10775 10772 10769 10765 10760 10763 10752 10752 10744 10740 10736 10734 10729 10724 10720 10713 10706 10700 10695 10690 10684 10677 10671 10666 10660 10653 10649 10642 10638 10632 10628 10622 10616 10609 10602 10597 10591 10586 10584 10583 10583 10585 10589 10594 10600 10608 10616 10625 10637
10762 10760 10758 10753 10753 10747 10743 10740 10734 10733 10727 10723 10719 10715 10712 10705 10698 10691 10687 10682 10674 10670 10664 10660 10654 10649 10645 10639 10636 10632 10627 10621 10617 10611 10604 10598 10593 10588 10585 10585 10585 10586 10589 10594 10598 10605 10613 10625 10636
10751 10751 10748 10747 10743 10740 10735 10732 10730 10725 10719 10715 10712 10708 10703 10696 10691 10686 10680 10674 10669 10663 10659 10656 10650 10645 10641 10639 10636 10631 10628 10621 10615 10612 10606 10602 10595 10591 10587 10586 10587 10588 10590 10594 10599 10605 10612 10623 10633
10741 10741 10740 10739 10736 10731 10729 10727 10724 10718 10711 10706 10704 10700 10695 10690 10684 10680 10674 10669 10663 10659 10656 10652 10647 10643 10639 10638 10637 10633 10629 10624 10618 10613 10609 10605 10599 10594 10590 10588 10588 10590 10592 10596 10600 10606 10613 10622 10632
10733 10731 10732 10733 10729 10726 10724 10720 10718 10712 10706 10700 10696 10692 10688 10684 10679 10674 10669 10663 10660 10657 10653 10648 10644 10640 10638 10638 10637 10634 10632 10627 10622 10617 10612 10607 10604 10598 10594 10590 10589 10591 10594 10597 10603 10607 10615 10624 10632
10723 10725 10725 10723 10722 10720 10718 10717 10712 10706 10700 10695 10691 10687 10682 10679 10674 10669 10664 10659 10657 10654 10650 10645 10642 10638 10638 10639 10639 10634 10633 10629 10624 10620 10615 10610 10606 10602 10597 10594 10592 10594 10596 10601 10605 10610 10616 10624 10633
10714 10717 10717 10715 10715 10714 10712 10710 10706 10699 10693 10688 10684 10680 10677 10674 10670 10664 10659 10657 10655 10651 10647 10644 10641 10638 10638 10640 10639 10636 10635 10632 10627 10623 10618 10614 10610 10607 10602 10598 10596 10597 10599 10603 10607 10613 10620 10628 10637
10707 10709 10709 10708 10709 10707 10707 10704 10702 10695 10690 10683 10678 10676 10672 10668 10663 10660 10656 10655 10652 10649 10646 10642 10640 10637 10639 10639 10639 10638 10637 10636 10632 10628 10623 10618 10615 10612 10609 10604 10601 10601 10604 10608 10612 10619 10625 10633 10640
10701 10702 10701 10701 10702 10700 10703 10698 10699 10692 10685 10679 10674 10671 10668 10663 10659 10656 10654 10653 10650 10648 10645 10641 10639 10637 10638 10640 10640 10641 10640 10639 10636 10632 10627 10622 10618 10616 10615 10611 10607 10608 10611 10614 10619 10625 10632 10638 10647
10694 10695 10692 10695 10695 10694 10693 10695 10694 10686 10681 10675 10670 10669 10664 10659 10657 10654 10653 10651 10649 10646 10644 10640 10639 10638 10640 10641 10641 10642 10642 10641 10640 10637 10633 10628 10623 10622 10622 10619 10616 10616 10618 10623 10628 10633 10638 10646 10653
10687 10685 10688 10688 10689 10688 10688 10688 10687 10683 10678 10672 10667 10665 10660 10657 10655 10652 10651 10649 10648 10646 10643 10640 10639 10639 10640 10643 10643 10644 10645 10645 10644 10643 10639 10634 10628 10627 10628 10627 10630 10628 10630 10635 10638 10642 10649 10655 10664
10678 10681 10681 10684 10683 10684 10683 10681 10684 10678 10674 10669 10664 10661 10658 10655 10653 10650 10649 10648 10647 10645 10642 10640 10640 10640 10641 10644 10644 10646 10648 10648 10648 10648 10645 10640 10637 10633 10634 10636 10637 10637 10640 10644 10648 10653 10658 10663 10673
10672 10675 10676 10679 10678 10680 10677 10677 10679 10676 10671 10667 10661 10659 10656 10653 10651 10650 10648 10646 10646 10644 10642 10640 10640 10640 10641 10644 10647 10648 10650 10650 10650 10651 10651 10648 10645 10641 10639 10641 10644 10645 10648 10652 10655 10660 10665 10673 10681